Jackson, MS

12:18 PM CDT on August 20, 2017 (GMT -0500)
Jackson-Evers International

Weather History for KJAN - March, 2013

Change the Weather History Date:

Monday, March 4, 2013

  Actual Average Record
Temperature  
Mean Temperature 53 °F 54 °F  
Max Temperature 71 °F 65 °F 88 °F (1910)
Min Temperature 34 °F 43 °F 19 °F (1968)
Degree Days  
Heating Degree Days 12 12  
Month to date heating degree days 97 48  
Since 1 July heating degree days 1848 2040  
Cooling Degree Days 0 1  
Month to date cooling degree days 0 1  
Year to date cooling degree days 14 11  
Growing Degree Days 2 (Base 50)    
Moisture  
Dew Point 40 °F    
Average Humidity 58    
Maximum Humidity 82    
Minimum Humidity 33    
Precipitation  
Precipitation 0.00 in 0.16 in 2.75 in (1983)
Month to date precipitation T 0.65  
Year to date precipitation 17.44 10.38  
Sea Level Pressure  
Sea Level Pressure 29.97 in    
Wind  
Wind Speed 13 mph (South)    
Max Wind Speed 27 mph    
Max Gust Speed 37 mph    
Visibility 10 miles    
Events      
T = Trace of Precipitation, MM = Missing Value Source: NWS Daily Summary

Daily Weather History Graph

Daily Weather History Graph

Search for Another Location

Airport or City:

Trip Planner

Search our weather history database for the weather conditions in past years. The results will help you decide how hot, cold, wet, or windy it might be!

Date:

Astronomy

Mar. 04, 2013 Rise Set
Actual Time 6:23 AM CST 6:00 PM CST
Civil Twilight 5:59 AM CST 6:24 PM CST
Nautical Twilight 5:30 AM CST 6:53 PM CST
Astronomical Twilight 5:02 AM CST 7:21 PM CST
Moon 12:19 AM CST (3/4) 10:56 AM CST (3/4)
Length of Visible Light 12h 25m
Length of Day
11h 36m
Waning Gibbous, 52% of the Moon is Illuminated
Mar 4
Waning Gibbous
Mar 4
Last Quarter
Mar 11
New
Mar 19
First Quarter
Mar 27
Full

Hourly Weather History & Observations

Time (CST) Temp. Windchill Dew Point Humidity Pressure Visibility Wind Dir Wind Speed Gust Speed Precip Events Conditions
12:54 AM 37.9 °F 32.1 °F 26.1 °F 62% 30.08 in 10.0 mi South 8.1 mph - N/A   Clear
1:54 AM 37.0 °F - 26.1 °F 65% 30.09 in 10.0 mi Calm Calm - N/A   Clear
2:54 AM 35.1 °F 29.3 °F 27.0 °F 72% 30.08 in 10.0 mi SSE 6.9 mph - N/A   Clear
3:54 AM 35.1 °F 29.3 °F 28.0 °F 76% 30.06 in 10.0 mi SSE 6.9 mph - N/A   Clear
4:54 AM 37.9 °F 32.1 °F 30.0 °F 73% 30.06 in 10.0 mi South 8.1 mph - N/A   Clear
5:54 AM 34.0 °F 28.0 °F 28.9 °F 82% 30.06 in 10.0 mi SSE 6.9 mph - N/A   Clear
6:54 AM 39.0 °F 32.8 °F 30.9 °F 73% 30.06 in 10.0 mi SSE 9.2 mph - N/A   Clear
7:54 AM 45.0 °F 39.7 °F 34.0 °F 65% 30.07 in 10.0 mi South 10.4 mph - N/A   Clear
8:54 AM 52.0 °F - 37.9 °F 59% 30.05 in 10.0 mi South 11.5 mph - N/A   Clear
9:54 AM 59.0 °F - 37.9 °F 46% 30.04 in 10.0 mi South 15.0 mph - N/A   Clear
10:54 AM 64.9 °F - 37.0 °F 36% 30.02 in 10.0 mi South 18.4 mph 31.1 mph N/A   Clear
11:54 AM 66.0 °F - 37.9 °F 36% 29.97 in 10.0 mi South 26.5 mph 33.4 mph N/A   Clear
12:54 PM 64.9 °F - 37.9 °F 37% 29.92 in 10.0 mi South 20.7 mph 35.7 mph N/A   Clear
1:54 PM 69.1 °F - 39.0 °F 33% 29.91 in 10.0 mi South 18.4 mph 34.5 mph N/A   Clear
2:54 PM 69.8 °F - 42.8 °F 38% 29.88 in 10.0 mi South 20.7 mph 32.2 mph N/A   Clear
3:54 PM 66.0 °F - 46.0 °F 48% 29.86 in 10.0 mi SSE 21.9 mph 28.8 mph N/A   Partly Cloudy
4:54 PM 66.9 °F - 46.9 °F 49% 29.86 in 10.0 mi South 17.3 mph 28.8 mph N/A   Partly Cloudy
5:54 PM 64.0 °F - 48.0 °F 56% 29.86 in 10.0 mi South 15.0 mph 24.2 mph N/A   Partly Cloudy
6:54 PM 63.0 °F - 48.9 °F 60% 29.88 in 10.0 mi South 16.1 mph - N/A   Mostly Cloudy
7:54 PM 61.0 °F - 50.0 °F 67% 29.87 in 10.0 mi South 16.1 mph - N/A   Scattered Clouds
8:54 PM 62.1 °F - 51.1 °F 67% 29.88 in 10.0 mi South 15.0 mph - N/A   Overcast
9:54 PM 62.1 °F - 51.1 °F 67% 29.90 in 10.0 mi South 12.7 mph - N/A   Overcast
10:54 PM 62.1 °F - 52.0 °F 70% 29.91 in 10.0 mi South 12.7 mph - N/A   Overcast
11:28 PM 60.8 °F - 53.6 °F 77% 29.92 in 10.0 mi South 12.7 mph 21.9 mph N/A   Overcast
11:54 PM 61.0 °F - 53.1 °F 75% 29.91 in 10.0 mi South 13.8 mph - N/A   Overcast